カタログに戻る

COSMOS 394

運用中軍事VLEO
NORAD 4922·PAYLOAD·🇷🇺 Russia

打ち上げ Feb 9, 1971 から Plesetsk Cosmodrome

Loading…

次のパス

TLE

Source: Space-Track
1  4922U 71010A   26221.86299512  .00002888  00000-0  57529-4 0  9999
2  4922  65.8188  98.8691 0009677 226.4964 133.5383 15.49089807 66333

AllMySatでCOSMOS 394をリアルタイム追跡

Download on the App Store